Погода в Кузьминке

Россия / Алтайский край     51°18′48″N   81°56′33″E
темп.,
°C
ветер,
м/с
пор.,
м/с
влажн.,
%
обл.,
%
осадки,
мм/ч
давл.,
гПа
погр.,
м
6 мая, чт
чт601:00+13юв2259100 0.0 101011
04:00+13ю2261100 0.0 100912
07:00+13ююв2263100 0.0 100916
10:00+18ю3756100 0.0 1008268
13:00+23ю5736100 0.0 1007899
16:00+25ю583270 0.0 10061194
19:00+24ю6123875 0.0 1005332
22:00+19ююв5135072 0.0 1006182
7 мая, пт
пт701:00+17ю3651100 0.0 1007103
04:00+17ююв2251100 0.0 100812
07:00+16св1156100 0.0 101011
10:00+17с6863100 0.0 1012550
13:00+13ссз5776100 0.1 1015489
16:00+13з1363100 1.0 1017426
19:00+17зюз1545100 1.0 1017766
22:00+11с23583 0.0 102027
8 мая, сб
сб801:00+9ссв2258100 0.0 102114
04:00+8ссв3359100 0.0 102236
07:00+7ссв497059 0.0 1023187
10:00+13ссв57478 0.0 1022701
13:00+16ссв67365 0.0 1021970
16:00+18ссв67345 0.0 10201094
19:00+17ссв57410 0.0 1020912
22:00+12св37550 0.0 102090
9 мая, вс
вс901:00+10св47540 0.0 1020101
04:00+9св410565 0.0 1019140
07:00+9св513605 0.0 1019239
10:00+16св711458 0.0 1018637
13:00+20св783464 0.0 1016961
16:00+22св783243 0.0 10151127
19:00+19св7114612 0.0 1014749
22:00+14св7155668 0.0 1013350
10 мая, пн
пн1001:00+11св596590 0.0 1012173
04:00+10св3370100 0.0 101139
07:00+11ссв2370100 0.0 101056
10:00+17с2252100 0.0 1009326
13:00+22св233661 0.0 1007959
16:00+24с4432100 0.0 10051565
19:00+19ссв81054100 0.0 1005593
22:00+14ссв61272100 1.3 1006397